Change the Weather History Date:

Monday, February 4, 2013

  Actual Average Record
Temperature  
Mean Temperature 9 °F -  
Max Temperature 12 °F 26 °F 46 °F (2005)
Min Temperature 6 °F 14 °F -8 °F (2007)
Degree Days  
Heating Degree Days 56    
Moisture  
Dew Point 2 °F    
Average Humidity 73    
Maximum Humidity 84    
Minimum Humidity 61    
Precipitation  
Precipitation 0.01 in - - ()
Sea Level Pressure  
Sea Level Pressure 29.97 in    
Wind  
Wind Speed 12 mph (NNW)    
Max Wind Speed 16 mph    
Max Gust Speed 23 mph    
Averages and records for this station are not official NWS values.
T = Trace of Precipitation, MM = Missing Value Source: NWS Daily Summary

Daily Weather History Graph

Daily Weather History Graph

Search for Another Location

Airport or City:

Trip Planner

Search our weather history database for the weather conditions in past years. The results will help you decide how hot, cold, wet, or windy it might be!

Date:

Astronomy

Feb. 04, 2013 Rise Set
Actual Time 8:13 AM EST 5:58 PM EST
Civil Twilight 7:40 AM EST 6:30 PM EST
Nautical Twilight 7:04 AM EST 7:07 PM EST
Astronomical Twilight 6:28 AM EST 7:43 PM EST
Moon 2:53 AM EST (2/4) 12:15 PM EST (2/4)
Length of Visible Light 10h 50m
Length of Day
9h 44m
Last Quarter, 37% of the Moon is Illuminated
Feb 4
Last Quarter
Feb 10
New
Feb 17
First Quarter
Feb 25
Full
Mar 4
Last Quarter

Hourly Weather History & Observations

Time (EST) Temp. Windchill Dew Point Humidity Pressure Visibility Wind Dir Wind Speed Gust Speed Precip Events Conditions
12:51 AM 8.1 °F -9.6 °F -0.9 °F 67% 30.01 in - NNE 16.1 mph 23.0 mph N/A   Unknown
1:51 AM 8.1 °F -7.0 °F 1.0 °F 73% 30.01 in - NNE 11.5 mph 20.7 mph N/A   Unknown
2:51 AM 7.0 °F -10.4 °F 1.9 °F 80% 30.01 in - NNE 15.0 mph - N/A   Unknown
3:51 AM 7.0 °F -9.8 °F 1.0 °F 77% 30.02 in - North 13.8 mph 19.6 mph N/A   Unknown
6:51 AM 7.0 °F -9.1 °F 1.0 °F 77% 30.01 in - North 12.7 mph - N/A   Unknown
7:51 AM 6.1 °F -7.8 °F -2.0 °F 69% 30.02 in - NNW 9.2 mph - N/A   Unknown
8:51 AM 7.0 °F -9.1 °F -0.9 °F 70% 30.02 in - North 12.7 mph - N/A   Unknown
9:51 AM 7.0 °F -9.8 °F -0.9 °F 70% 30.02 in - North 13.8 mph - N/A   Unknown
10:51 AM 8.1 °F -7.7 °F -0.0 °F 70% 30.02 in - North 12.7 mph - N/A   Unknown
11:51 AM 9.0 °F -7.3 °F -0.0 °F 67% 30.03 in - NNW 13.8 mph 19.6 mph N/A   Unknown
12:51 PM 9.0 °F -5.9 °F -0.0 °F 67% 30.02 in - NNW 11.5 mph 18.4 mph N/A   Unknown
1:51 PM 9.0 °F -6.6 °F -0.0 °F 67% 30.00 in - NNW 12.7 mph 17.3 mph N/A   Unknown
2:51 PM 10.9 °F 0.2 °F 3.9 °F 73% 29.97 in - Variable 6.9 mph 17.3 mph 0.01 in   Unknown
3:51 PM 12.0 °F 0.5 °F 1.0 °F 61% 29.95 in - NNW 8.1 mph 19.6 mph N/A   Unknown
4:51 PM 10.9 °F 0.2 °F 1.9 °F 67% 29.94 in - Variable 6.9 mph - N/A   Unknown
5:51 PM 10.9 °F 4.7 °F 3.9 °F 73% 29.94 in - Variable 3.5 mph - N/A   Unknown
6:51 PM 10.9 °F - 5.0 °F 77% 29.93 in - Calm Calm - N/A   Unknown
7:51 PM 9.0 °F 0.6 °F 5.0 °F 84% 29.92 in - Variable 4.6 mph - N/A   Unknown
8:51 PM 9.0 °F -2.2 °F 5.0 °F 84% 29.90 in - WSW 6.9 mph 16.1 mph N/A   Unknown
9:51 PM 8.1 °F -4.3 °F 3.9 °F 83% 29.89 in - WSW 8.1 mph - N/A   Unknown
10:51 PM 8.1 °F -5.3 °F 3.0 °F 80% 29.88 in - WSW 9.2 mph - N/A   Unknown
11:51 PM 8.1 °F -6.2 °F 1.9 °F 76% 29.87 in - WSW 10.4 mph 17.3 mph N/A   Unknown